Regional Weather Roundup
Issued by NWS

Home | Current Version | Previous Version | Graphics & Text | Print | Product List | Glossary Off
Versions: 1 2 3 4 5 6 7 8 9 10 11 12 13 14 15 16 17 18 19 20 21 22 23 24 25 26 27 28 29 30 31 32 33 34 35 36 37 38 39 40 41 42 43 44 45 46 47 48 49 50

843
ASUS43 KIND 260809
RWRIN

WEATHER ROUNDUP FOR INDIANA
NATIONAL WEATHER SERVICE INDIANAPOLIS IN
400 AM EDT SAT MAY 26 2018

NOTE: "FAIR" INDICATES FEW OR NO CLOUDS BELOW 12,000 FEET WITH NO
SIGNIFICANT WEATHER AND/OR OBSTRUCTIONS TO VISIBILITY.

* - STATION DOES NOT REPORT WEATHER SUCH AS PRECIPITATION OR FOG.

+ - STATION NOT QUALITY CONTROLLED BY THE NATIONAL WEATHER SERVICE.
    USE DATA WITH CAUTION...ESPECIALLY DEWPOINT AND RELATIVE
    HUMIDITY OBSERVATIONS.

INZ001>003-010>013-019-020-260900-
NORTHWEST INDIANA

CITY           SKY/WX    TMP DP  RH WIND       PRES   REMARKS
GARY /AIRPORT/ FAIR      71  66  85 S7        29.76F
KNOX *+        CLOUDY    70  64  83 CALM      29.78F
LA PORTE +     FAIR      70  65  84 SE3       29.79S
MICHIGAN CITY+ FAIR      66  63  88 CALM      29.78F
MONTICELLO +   FAIR      69  68  96 S6        29.79S
RENSSELAER +   FAIR      70  63  78 SW8       29.79R
VALPARAISO     FAIR      71  67  87 SW3       29.78F

$$

LMZ046-743>745-260900-
SOUTHERN LAKE MICHIGAN

STATION/POSITION TIME  TEMP    WIND        PRES    WAVE
                       AIR SEA DIR/SP/G            HT
                 (UTC) (F)     (DEG/KT/KT) (MB)    (FT)
BURNS HARBOR     0740   71        CALM     1008.5F
MICHIGAN CITY    0740   70      80/  2/  3   N/A
5NW MICH CITY    0800   63 61  120/  4/  4   N/A     1

$$

INZ004-005-014>016-021>024-260900-
NORTH CENTRAL INDIANA

CITY           SKY/WX    TMP DP  RH WIND       PRES   REMARKS
GOSHEN         MOCLDY    71  64  78 SW5       29.80S
LOGANSPORT +   CLOUDY    70  64  83 S5        29.81F
PERU/GRISSOM   CLOUDY    70  70 100 S5        29.80F
ROCHESTER +    LGT RAIN  72  66  83 CALM      29.80F
SOUTH BEND     CLOUDY    70  63  78 E3        29.79F
WARSAW +       MOCLDY    70  61  73 CALM      29.81F

$$

INZ006>009-017-018-025>027-260900-
NORTHEAST INDIANA

CITY           SKY/WX    TMP DP  RH WIND       PRES   REMARKS
ANGOLA *+      FAIR      72  59  64 SW5       29.80F
AUBURN +       FAIR      70  59  68 SW3       29.82S
FORT WAYNE     CLOUDY    71  62  73 SW7       29.82S
HUNTINGTON +   FAIR      69  63  83 CALM      29.81S
KENDALLVILLE + FAIR      69  55  60 SW6       29.81S

$$

INZ028-029-035-036-043>045-051>053-260900-
WEST CENTRAL INDIANA

CITY           SKY/WX    TMP DP  RH WIND       PRES   REMARKS
CRAWFORDSVL +  FAIR      67  62  82 SW7       29.82F
GREENCASTLE +  FAIR      68  63  83 CALM      29.84F
LAFAYETTE      FAIR      69  68  96 SW6       29.79S
TERRE HAUTE    FAIR      70  64  81 SW8       29.82F

$$

INZ030>032-037>040-046>048-054>057-064-065-260900-
CENTRAL INDIANA

CITY           SKY/WX    TMP DP  RH WIND       PRES   REMARKS
ANDERSON       FAIR      71  62  72 S5        29.84F
FISHERS *+     FAIR     N/A N/A N/A SW3       29.83F
FRANKFORT +    FAIR     N/A N/A N/A CALM      29.83S
GREENWOOD *+   FAIR      71  65  79 SW3       29.84F
INDIANAPOLIS   MOCLDY    71  66  84 SW7       29.83F
-EAGLE CREEK   FAIR      73  65  75 SW3       29.82F
KOKOMO +       FAIR      71  66  84 S3        29.82F
MARION +       CLOUDY    71  63  75 CALM      29.82F
MT COMFORT *+  FAIR      72  68  88 S5        29.84F
SHELBYVILLE    FAIR      72  62  71 SW3       29.83F
ZIONSVILLE +   FAIR      70  63  78 S5        29.83F

$$

INZ033-034-041-042-049-050-058-059-260900-
EAST CENTRAL INDIANA

CITY           SKY/WX    TMP DP  RH WIND       PRES   REMARKS
MUNCIE         CLOUDY    75  61  61 SW6       29.83F
RICHMOND +     FAIR      68  63  83 SW6       29.86F

$$

INZ060-061-067>069-081>083-085>088-260900-
SOUTHWEST INDIANA

CITY           SKY/WX    TMP DP  RH WIND       PRES   REMARKS
EVANSVILLE     FAIR      71  70  96 SW3       29.84F
HUNTINGBURG +  FAIR      70  66  87 S5        29.86F
WASHINGTON +   FAIR      70  65  85 SW5       29.84S

$$

INZ062-063-066-070>080-084-089>092-260900-
SOUTH CENTRAL AND SOUTHEAST INDIANA

CITY           SKY/WX    TMP DP  RH WIND       PRES   REMARKS
BATESVILLE +   MOCLDY    68  63  83 CALM      29.86S
BEDFORD +      FAIR      68  63  83 S3        29.85S
BLOOMINGTON    FAIR      71  65  81 SW7       29.84F
FRENCH LICK *+ FAIR      68  64  88 SW3       29.87S
MADISON *+     FAIR      70  64  83 CALM      29.88S
NORTH VERNON + MOCLDY    70  63  78 SW3       29.85S
SEYMOUR +      FAIR      70  64  83 S5        29.85R

$$





USA.gov is the U.S. government's official web portal to all federal, state and local government web resources and services.